STAR ONE C1

Last updated on Sat Jun 11 2022 00:02:37 GMT+0000 (Coordinated Universal Time)

1 32293U 07056A 22161.53573826 .00000083 00000+0 00000+0 0 9997 2 32293 0.9472 92.8517 0007912 178.5720 63.9039 0.99062978 846
UTC large
Height (km)
Speed (km/s)
/
Latitude / Longitude
Inclination (degrees)
Orbital Period (minutes)
Azimuth
Elevation
Range (km)
Doppler Factor

Next 0 passes for location: London (51.5072 / 0.1276)

Sorry there are no passes over London.